Location: Pasarilla del Rebollar
(40.6790°N, 5.0062°W)
Time: 11:53:28
(UTC+00:00)

Cosmos 1939 Rocket - Pass Details

Date: 22 April 2026
Orbit: 486 x 522 km, 97.5° (Epoch: 16 May)

Event Time Altitude Azimuth Distance (km) Brightness Sun altitude
Rises 04:46:14 0° 16° (NNE) 2,572 6.9 -8.8°
Reaches altitude 10° 04:48:20 10° 21° (NNE) 1,690 6.0 -8.4°
Maximum altitude 04:51:54 57° 100° (E) 588 3.3 -7.8°
Drops below altitude 10° 04:55:29 10° 180° (S) 1,692 5.1 -7.2°
Sets 04:57:35 0° 185° (S) 2,576 6.0 -6.8°
